Flag for Switzerland Weather past 2 weeks in Zürich, Zurich, Switzerland

Now
52 °F

Cool.


Feels Like: 52 °F
Forecast: 39 / 59 °F
Wind: 2 mph from Southwest

Location: Zurich Town / Ville.

Current Time: Oct 25, 2014 at 5:19:12 PM

Latest Report: Oct 25, 2014 at 4:00 PM


Visibility: N/A

Pressure: 30.16 "Hg

Humidity: 80%

Dew point: 46 °F

Location of ZürichLocation

Historic Weather in Zürich — Graph

°F

Zürich temperature yesterday

Maximum temperature yesterday: 51 °F (at 4:00 PM)
Minimum temperature yesterday: 37 °F (at 5:00 AM)
Average temperature yesterday: 43 °F

Past Weeks' High & Low Weather Summary

 TemperatureHumidityPressure
High70 °F (Oct 19, 4:00 PM)100% (Oct 18, 6:00 AM)30.34 "Hg (Oct 18, 6:00 AM)
Low37 °F (Oct 24, 5:00 AM)53% (Oct 21, 4:00 PM)29.74 "Hg (Oct 21, 7:00 PM)
Average54 °F85%30.03 "Hg
* Reported Oct 10 4:00 PM — Oct 25 4:00 PM, Zürich, Weather by CustomWeather, © 2014

Note: Actual official high and low records may vary slightly from our data, if they occured in-between our weather recording intervals... More about our weather records

Advertising

Zürich weather history for previous 24 hours

 ConditionsComfort  
Time TempWeatherWind HumidityBarometerVisibility
4:00 PM
Oct 25
52 °FCool.2 mph80%30.16 "HgN/A
3:00 PM52 °FCool.1 mph77%30.16 "HgN/A
2:00 PM52 °FCool.2 mph75%30.16 "HgN/A
1:00 PM51 °FCool.2 mph82%30.16 "HgN/A
12:00 PM49 °FCool.1 mph85%30.17 "HgN/A
11:00 AM47 °FCool.1 mph84%30.17 "HgN/A
10:00 AM46 °FCool.1 mph93%30.17 "HgN/A
9:00 AM46 °FCool.No wind92%30.18 "HgN/A
8:00 AM45 °FOvercast.1 mph94%30.16 "HgN/A
7:00 AM45 °FQuite cool.1 mph95%30.15 "HgN/A
6:00 AM45 °FQuite cool.1 mph91%30.15 "HgN/A
5:00 AM45 °FQuite cool.1 mph88%30.14 "HgN/A
4:00 AM44 °FQuite cool.1 mph90%30.14 "HgN/A
3:00 AM45 °FQuite cool.2 mph90%30.14 "HgN/A
2:00 AM45 °FQuite cool.No wind90%30.16 "HgN/A
1:00 AM44 °FQuite cool.2 mph91%30.16 "HgN/A
12:00 AM44 °FQuite cool.2 mph89%30.16 "HgN/A
11:00 PM
Oct 24
44 °FQuite cool.1 mph89%30.17 "HgN/A
10:00 PM43 °FQuite cool.No wind89%30.17 "HgN/A
9:00 PM43 °FQuite cool.1 mph88%30.16 "HgN/A
8:00 PM44 °FQuite cool.6 mph87%30.16 "HgN/A
7:00 PM45 °FQuite cool.5 mph84%30.15 "HgN/A
6:00 PM48 °FCool.3 mph74%30.14 "HgN/A
5:00 PM51 °FCool.3 mph66%30.13 "HgN/A
Weather by CustomWeather, © 2014

See weather overviewHow to use our weather pages